Погода в Ковалево-Поморске

Польша     53°09′24″N   18°53′41″E
темп.,
°C
ветер,
м/с
пор.,
м/с
влажн.,
%
обл.,
%
осадки,
мм/ч
давл.,
гПа
погр.,
м
28 февраля, вс
вс2801:000з358714 0.0 1034137
04:00+1з488992 0.0 1032203
07:00+1з599752 0.0 1032262
10:00+3зсз699392 0.0 1032514
13:00+4зсз6108696 0.0 1031577
16:00+5сз5883100 0.0 1031578
19:00+2сз499364 0.0 1031254
22:00+1сз36950 0.0 1033145
1 марта, пн
пн101:00+1ссз36930 0.0 1034105
04:00+1ссз23900 0.0 103337
07:00+1зсз22880 0.0 103422
10:00+6з23720 0.0 1034258
13:00+9зюз45660 0.0 1034444
16:00+8зюз48720 0.0 1033465
19:00+4зюз49880 0.0 1033158
22:00+3зюз49900 0.0 1032178
2 марта, вт
вт201:00+2з511880 0.0 1032256
04:00+1з511920 0.0 1030253
07:00+1з510930 0.0 1031271
10:00+6зсз610790 0.0 1031456
13:00+9сз58661 0.0 1032623
16:00+9сз36691 0.0 1031521
19:00+5ссз338530 0.0 103240
22:00+3с229381 0.0 103222
3 марта, ср
ср301:00+2всв119452 0.0 103322
04:00+1ююв11930 0.0 103122
07:00+1ююз12950 0.0 103122
10:00+5юз23791 0.0 1030354
13:00+8зюз34621 0.0 1028530
16:00+8зюз35630 0.0 1025329
19:00+4юз34770 0.0 102363
22:00+3юз34820 0.0 102173
4 марта, чт
чт401:00+2зюз34880 0.0 101967
04:00+2зюз36920 0.0 101693
07:00+1зюз48955 0.0 1015159
10:00+6з578425 0.0 1013398
13:00+8зсз567340 0.0 1012862
16:00+6зсз5782100 0.1 1011593
19:00+2ссв6892100 0.1 1012433
22:000ссв71172100 0.2 1013663